EHI
0 0 0 0 0 0 0 0 0 0 0 0 0 0 0 0 0 0 0 0 0 0 0 0 0 0 0 0 0 0 0 0 0 0 0 0 0 0 0 0 0 0 0
0 0 0 0 0 0 0 0 0 0 0 0 0 0 0 0 0 0 0 0 0 0 0 0 0 0 0 0 0 0 0 0 0 0 0 0 0 0 0 0 0 0 0
0 0 0 0 0 0 0 0 0 0 0 0 0 0 0 0 0 0 0 0 0 0 0 0 0 0 0 0 0 0 0 0 0 0 0 0 0 0 0 0 0 0 0
0 0 0 0 0 0 0 0 0 0 0 0 0 0 0 0 0 0 0 0 0 0 0 0 0 0 0 0 0 0 0 0 0 0 0 0 0 0 0 0 0 0 0
0 0 0 0 0 0 0 0 0 0 0 0 0 0 0 0 0 0 0 0 0 0 0 0 0 0 0 0 0 0 0 0 0 0 0 0 0 0 0 0 0 0 0
0 0 0 0 0 0 0 0 0 0 0 0 0 0 0 0 0 0 0 0 0 0 0 0 0 0 0 0 0 0 0 0 0 0 0 0 0 0 0 0 0 0 0
0 0 0 0 0 0 0 0 0 0 0 0 0 0 0 0 0 0 0 0 0 0 0 0 0 0 0 0 0 0 0 0 0 0 0 0 0 0 0 0 0 0 0
0 0 0 0 0 0 0 0 0 0 0 0 0 0 0 0 0 0 0 0 0 0 0 0 0 0 0 0 0 0 0 0 0 0 0 0 0 0 0 0 0 0 0
0 0 0 0 0 0 0 0 0 0 0 0 0 0 0 0 0 0 0 0 0 0 0 0 0 0 0 0 0 0 0 0 0 0 0 0 0 0 0 0 0 0 0
0 0 0 0 0 0 0 0 0 0 0 0 0 0 0 0 0 0 0 0 0 0 0 0 0 0 0 0 0 0 0 0 0 0 0 0 0 0 0 0 0 0 0
0 0 0 0 0 0 0 0 0 0 0 0 0 0 0 0 0 0 0 0 0 0 0 0 0 0 0 0 0 0 0 0 0 0 0 0 0 0 0 0 0 0 0
0 0 0 0 0 0 0 0 0 0 0 0 0 0 0 0 0 0 0 0 0 0 0 0 0 0 0 0 0 0 0 0 0 0 0 0 0 0 0 0 0 0 0
0 0 0 0 0 0 0 0 0 0 0 0 0 0 0 0 0 0 0 0 0 0 0 0 0 0 0 0 0 0 0 0 0 0 0 0 0 0 0 0 0 0 0
0 0 0 0 0 0 0 0 0 0 0 0 0 0 0 0 0 0 0 0 0 0 0 0 0 0 0 0 0 0 0 0 0 0 0 0 0 0 0 0 0 0 0
0 0 0 0 0 0 0 0 0 0 0 0 0 0 0 0 0 0 0 0 0 0 0 0 0 0 0 0 0 0 0 0 0 0 0 0 0 0 0 0 0 0 0
0 0 0 0 0 0 0 0 0 0 0 0 0 0 0 0 0 0 0 0 0 0 0 0 0 0 0 0 0 0 0 0 0 0 0 0 0 0 0 0 0 0 0
0 0 0 0 0 0 0 0 0 0 0 0 0 0 0 0 0 0 0 0 0 0 0 0 0 0 0 0 0 0 0 0 0 0 0 0 0 0 0 0 0 0 0
0 0 0 0 0 0 0 0 0 0 0 0 0 0 0 0 0 0 0 0 0 0 0 0 0 0 0 0 0 0 0 0 0 0 0 0 0 0 0 0 0 0 0
0 0 0 0 0 0 0 0 0 0 0 0 0 0 0 0 0 0 0 0 0 0 0 0 0 0 0 0 0 0 0 0 0 0 0 0 0 0 0 0 0 0 0
0 0 0 0 0 0 0 0 0 0 0 0 0 0 0 0 0 0 0 0 0 0 0 0 0 0 0 0 0 0 0 0 0 0 0 0 0 0 0 0 0 0 0
0 0 0 0 0 0 0 0 0 0 0 0 0 0 0 0 0 0 0 0 0 0 0 0 0 0 0 0 0 0 0 0 0 0 0 0 0 0 0 0 0 0 0
0 0 0 0 0 0 0 0 0 0 0 0 0 0 0 0 0 0 0 0 0 0 0 0 0 0 0 0 0 0 0 0 0 0 0 0 0 0 0 0 0 0 0
0 0 0 0 0 0 0 0 0 0 0 0 0 0 0 0 0 0 0 0 0 0 0 0 0 0 0 0 0 0 0 0 0 0 0 0 0 0 0 0 0 0 0
0 0 0 0 0 0 0 0 0 0 0 0 0 0 0 0 0 0 0 0 0 0 0 0 0 0 0 0 0 0 0 0 0 0 0 0 0 0 0 0 0 0 0
0 0 0 0 0 0 0 0 0 0 0 0 0 0 0 0 0 0 0 0 0 0 0 0 0 0 0 0 0 0 0 0 0 0 0 0 0 0 0 0 0 0 0
0 0 0 0 0 0 0 0 0 0 0 0 0 0 0 0 0 0 0 0 0 0 0 0 0 0 0 0 0 0 0 0 0 0 0 0 0 0 0 0 0 0 0
Wind_Speed
6 5 4 4 4 3 4 3 3 3 2 2 3 4 4 4 4 2 2 5 6 7 7 7 7 7 7 7 7 7 7 8 8 8 9 9 9 10 10 10 11 11 11
7 6 5 5 4 4 4 4 4 3 2 2 3 4 4 4 4 3 2 3 5 5 5 5 5 5 5 6 6 6 6 6 7 7 7 8 8 9 9 10 10 10 11
9 7 6 5 5 5 5 3 3 3 3 3 3 4 3 3 4 4 3 2 2 3 4 4 4 3 3 4 4 4 4 5 5 6 6 7 7 8 9 9 10 10 10
10 8 7 6 5 5 4 4 4 3 3 3 3 2 2 3 3 3 3 2 2 1 2 3 2 2 2 2 2 2 2 3 4 4 5 6 7 7 8 9 9 10 10
11 8 7 6 6 5 4 5 3 3 3 3 3 2 2 2 3 3 3 3 3 2 1 2 2 2 1 1 0 0 1 2 3 4 5 6 6 7 8 8 9 10 10
11 9 7 8 7 5 4 4 4 3 3 4 3 2 1 1 1 2 3 3 3 3 3 2 1 1 3 3 2 2 2 2 3 4 5 6 7 8 8 9 9 10 11
12 10 7 8 8 7 7 7 4 4 3 3 3 2 2 2 0 1 2 2 3 3 3 3 2 2 2 4 4 4 4 4 4 5 5 6 8 8 9 10 10 11 12
12 11 10 9 8 7 7 7 5 4 3 3 4 3 0 3 2 1 2 3 3 2 3 4 3 3 2 1 3 5 5 5 6 6 6 7 8 9 10 11 12 13 13
13 11 11 10 9 9 8 8 7 7 5 3 3 5 4 4 2 2 2 2 3 3 3 3 4 4 4 3 2 4 6 6 6 7 8 8 9 10 11 12 13 14 14
13 12 12 11 10 8 9 9 7 5 7 4 2 2 3 4 3 1 2 2 3 4 4 3 4 4 4 3 4 6 7 7 7 8 9 9 10 12 13 13 14 15 15
12 12 12 11 11 9 10 10 8 7 6 5 4 3 2 1 2 3 2 2 2 3 4 4 3 3 4 4 3 6 8 8 8 9 9 10 11 12 13 14 15 16 16
9 12 13 12 11 10 10 10 10 10 7 6 5 4 4 4 4 3 3 3 3 3 3 3 3 4 3 4 5 8 9 8 8 9 9 10 11 13 14 15 16 16 17
10 14 13 13 11 10 10 9 10 10 9 8 7 5 4 4 4 4 3 2 2 2 2 2 3 3 3 3 4 7 8 9 8 8 9 9 10 12 13 15 15 16 17
12 12 13 12 12 12 11 10 9 9 9 9 9 7 5 4 4 4 4 4 2 2 2 4 1 2 3 3 4 5 4 8 7 8 8 9 10 11 13 14 16 16 17
9 11 12 12 11 12 12 11 9 10 9 9 9 8 6 5 4 4 3 4 4 3 4 3 2 2 2 2 3 3 3 6 7 8 8 9 11 12 13 15 15 16 17
11 12 13 12 11 12 12 11 8 9 10 9 7 8 7 4 4 4 3 3 3 4 4 3 3 1 1 1 3 2 3 6 7 9 10 10 11 13 14 14 16 16 17
13 13 14 13 13 12 12 11 10 10 11 9 8 9 9 6 5 4 3 3 3 3 4 3 1 0 0 1 2 1 1 2 3 8 10 11 12 13 14 15 16 16 17
13 13 13 13 13 13 12 12 12 11 11 11 10 9 8 5 6 4 4 4 4 3 4 4 1 1 1 1 1 1 2 2 3 7 10 12 13 13 14 15 15 16 16
13 13 13 14 13 13 12 12 11 10 10 10 10 9 8 7 7 4 4 4 3 2 2 2 2 1 1 1 1 2 2 2 3 6 9 10 11 13 15 15 15 15 15
13 14 13 13 12 12 11 10 10 9 9 8 8 8 8 8 8 6 5 4 3 3 2 2 1 1 1 1 0 1 3 3 4 4 5 7 11 13 14 15 15 15 16
13 12 11 11 10 10 10 11 10 9 9 8 6 6 6 7 8 6 5 5 5 3 2 2 1 1 1 1 1 1 2 3 3 2 4 4 5 4 6 10 13 15 16
12 12 12 11 11 8 13 15 12 9 9 8 7 5 5 6 7 7 7 7 7 5 4 3 2 2 2 2 1 1 1 2 3 2 2 5 3 4 4 4 11 15 15
12 12 11 11 11 11 15 16 15 10 8 8 7 6 5 5 6 5 6 6 4 4 4 4 3 3 2 2 1 1 2 2 3 3 2 4 3 4 5 7 14 14 15
11 11 11 11 10 10 16 16 15 9 7 7 7 7 7 6 6 7 6 5 3 2 2 2 2 2 1 1 2 1 1 2 3 2 1 3 3 4 6 5 11 13 16
9 9 10 11 10 10 15 17 15 8 7 7 6 7 7 7 10 11 8 6 4 2 4 6 5 4 4 4 4 2 2 2 2 2 1 2 3 5 4 4 6 13 16
9 9 8 9 10 10 14 17 16 8 8 7 6 6 8 9 11 11 7 6 5 3 3 4 4 4 4 4 5 2 1 0 1 3 2 2 2 4 5 3 3 5 7
Wind_Direction
154 153 151 150 150 147 149 149 151 152 153 141 128 130 132 133 133 119 95 103 102 105 105 102 98 92 89 84 76 68 64 59 55 51 43 37 33 30 25 22 19 16 14
159 158 158 159 162 162 161 159 161 156 151 133 126 132 136 138 136 131 113 101 107 112 112 105 99 92 89 87 79 68 61 54 50 46 38 31 26 21 19 15 12 11 8
164 163 163 167 173 166 159 148 147 136 132 126 123 130 132 141 146 147 137 114 102 109 120 114 104 99 92 87 81 69 59 48 43 37 29 22 17 12 10 6 3 2 359
167 164 166 174 173 162 155 152 146 132 133 129 125 125 126 137 154 159 150 145 133 118 133 142 139 128 108 91 82 69 54 36 27 20 13 7 4 1 359 356 355 353 351
171 169 171 173 168 162 160 162 147 141 142 139 131 117 123 143 161 161 167 173 172 168 175 182 176 185 196 243 263 341 358 4 360 357 354 352 350 348 347 346 345 342 340
174 170 171 172 167 162 164 159 149 141 143 143 117 88 63 115 152 168 180 182 187 189 188 188 186 226 228 246 262 277 291 308 321 330 334 335 335 335 335 334 333 332 332
175 173 173 172 173 173 172 159 144 145 139 131 99 58 3 359 283 211 191 189 202 202 196 199 200 212 247 248 254 265 277 291 304 313 318 323 324 325 325 325 325 326 325
178 179 174 177 176 169 168 165 148 144 153 154 131 117 23 326 305 264 226 211 212 205 210 210 206 208 214 229 253 256 270 281 292 302 310 314 316 318 319 320 320 319 319
182 181 179 177 178 177 179 177 166 158 163 184 160 148 158 212 261 299 255 233 219 216 224 220 215 213 209 211 229 249 256 271 287 297 303 308 309 311 314 317 318 317 317
184 182 180 180 180 182 180 181 175 164 157 173 191 177 158 154 157 248 299 271 239 229 227 226 220 216 208 206 215 227 243 260 277 289 298 304 307 309 311 314 315 316 316
186 184 182 183 184 186 185 182 176 175 169 168 171 163 147 126 138 154 237 280 282 250 231 226 221 220 214 211 215 228 239 253 269 283 294 301 305 308 311 313 315 315 314
188 189 186 188 188 188 187 185 183 182 183 176 176 169 163 167 182 171 196 229 249 266 247 229 224 224 219 216 224 232 240 251 265 278 289 298 304 308 311 314 315 315 314
193 195 190 191 190 189 186 182 184 189 186 185 187 190 189 187 166 163 168 196 232 272 283 255 232 226 224 215 230 237 244 254 264 276 287 297 304 309 311 313 315 315 315
197 190 191 193 191 187 186 185 188 191 191 195 196 193 196 200 180 171 167 161 190 279 281 265 272 235 230 214 231 233 247 255 265 277 288 297 304 307 309 311 312 313 314
187 184 190 191 190 188 188 186 193 193 191 198 199 198 201 201 191 187 171 165 168 212 255 255 259 264 240 224 241 228 234 259 271 281 288 295 301 304 307 308 310 311 312
183 184 189 191 189 189 189 189 190 190 193 197 193 197 204 201 195 188 183 180 178 185 230 242 235 262 267 261 253 232 237 264 276 284 291 298 304 305 306 310 310 310 310
185 187 189 190 191 192 190 192 194 189 195 195 192 197 205 196 192 193 183 181 188 180 222 255 241 270 221 266 295 282 264 260 282 288 296 302 305 306 308 309 310 310 312
188 187 186 189 192 193 192 194 195 193 195 196 195 195 202 190 193 190 186 192 196 189 198 239 252 258 252 274 281 279 297 294 284 294 302 305 307 309 309 311 312 314 316
186 185 186 190 191 191 192 194 192 192 193 194 193 196 197 186 196 192 188 193 192 179 180 198 234 230 270 324 323 311 312 301 301 301 305 308 311 314 315 315 315 316 317
184 186 188 188 187 186 187 187 185 185 186 188 189 192 191 190 194 188 188 191 175 168 166 176 206 215 240 299 327 299 309 309 303 308 312 314 313 317 317 316 315 317 318
183 181 179 179 179 181 184 181 179 179 179 179 179 182 183 181 182 181 179 178 168 169 167 180 203 213 240 283 274 275 284 304 295 294 311 305 304 302 311 314 315 318 320
174 171 174 175 177 182 179 175 173 174 173 174 172 167 163 167 164 161 161 160 160 167 180 182 195 218 241 240 241 267 270 313 298 298 306 294 296 296 301 296 312 320 322
168 169 171 172 176 176 170 168 167 166 167 170 166 158 148 146 144 141 135 126 130 136 156 168 187 216 224 222 195 231 244 255 264 288 313 288 300 297 302 310 318 323 330
165 167 168 168 164 165 162 159 155 154 152 155 156 155 151 149 147 141 131 123 114 109 131 138 168 195 206 194 169 187 234 286 289 296 326 284 300 301 307 303 312 324 331
155 159 161 158 156 158 157 153 148 144 139 138 139 141 145 147 146 140 135 131 117 88 80 96 94 87 75 70 87 79 39 11 315 298 347 308 303 308 297 293 313 326 330
145 144 144 150 152 153 152 148 143 140 137 132 125 132 140 141 143 141 143 144 145 144 111 86 71 60 54 52 61 81 118 47 316 295 316 319 302 325 312 295 301 309 316